Regional Weather Roundup
Issued by NWS Lake Charles, LA

Home | Current Version | Previous Version | Text Only | Print | Product List | Glossary On
Versions: 1 2 3 4 5 6 7 8 9 10 11 12 13 14 15 16 17 18 19 20 21 22 23 24 25 26 27
000
ASUS44 KLCH 290910
RWRLCH
REGIONAL WEATHER ROUNDUP
NATIONAL WEATHER SERVICE LAKE CHARLES LA
400 AM CDT SAT APR 29 2017

Note: "fair" indicates few or no clouds below 12,000 feet with no
significant weather and/or obstructions to visibility.


ACROSS SOUTHEAST TEXAS

CITY           SKY/WX    TMP DP  RH WIND       PRES   REMARKS
BEAUMONT       CLOUDY    78  74  87 SE25G35   29.73F
BEAUMONT CITY  CLOUDY    78  74  85 SE17G23   29.73F HAZE
ORANGE         CLOUDY    77  75  94 SE14G20   29.77F FOG
JASPER         MOCLDY    77  74  91 SE9G17    29.75F
$$

ACROSS CENTRAL LOUISIANA

CITY           SKY/WX    TMP DP  RH WIND       PRES   REMARKS
LEESVILLE      CLOUDY    78  73  84 SE18G25   29.76F
FULLERTON      CLOUDY    78  72  81 SE8       29.75F
ALEXANDRIA INT CLOUDY    78  72  81 SE20      29.77F
ESLER FIELD    CLOUDY    78  73  84 SE12      29.81F
DERIDDER       LGT RAIN  77  76  95 SE13G20   29.79S
OAKDALE        CLOUDY    78  73  83 SE9G17    29.79F
OPELOUSAS      CLOUDY    77  71  81 SE17G23   29.82F
$$

ACROSS SOUTHWEST AND SOUTH CENTRAL LOUISIANA

CITY           SKY/WX    TMP DP  RH WIND       PRES   REMARKS
SULPHUR        CLOUDY    78  75  90 SE20G29   29.78S
LAKE CHARLES   CLOUDY    77  74  90 SE20      29.78S
CHENNAULT INT  CLOUDY    65  64  93 SE18G24   29.78F
CAMERON PHI    MOSUNNY   77  75  94 SE20G28   29.76F FOG
DEQUINCY       CLOUDY    75  74  94 SE12G22   29.77F
JENNINGS       CLOUDY    77  73  86 SE16G24   29.79F
LAFAYETTE      CLOUDY    82  73  74 SE9G17    29.83F
NEW IBERIA     CLOUDY    78  71  79 SE20      29.84F
ABBEVILLE      NOT AVBL
PATTERSON      CLOUDY    78  74  87 SE9G18    29.87S
SALT POINT       N/A     78  73  84 SE14G21   29.83F
$$

SELECTED SITES ACROSS THE REGION

CITY           SKY/WX    TMP DP  RH WIND       PRES   REMARKS
HOUSTON BUSH   CLOUDY    80  73  79 SE22G35   29.66F
HOUSTON HOBBY  CLOUDY    79  74  84 SE16G29   29.66F
GALVESTON      CLOUDY    79  76  90 SE18G29   29.69F
COLLEGE STAT   CLOUDY    79  74  84 SE16G24   29.62F HAZE
CONROE         LGT RAIN  79  73  82 SE20G32   29.67S
HUNTSVILLE     CLOUDY    80  72  76 SE8       29.65F
LUFKIN         LGT RAIN  76  73  91 SE10      29.69S FOG
SHREVEPORT     CLOUDY    79  72  79 S18G29    29.70F
MONROE         CLOUDY    78  71  79 S10G23    29.78F
NATCHEZ MS     MOCLDY    76  71  85 S13       29.85F
BATON ROUGE    CLOUDY    78  72  81 SE12      29.87S
N.O. INTL ARPT CLOUDY    77  73  87 SE13      29.90S
SLIDELL        CLOUDY    77  74  90 SE8       29.91F
$$

MARINE REPORTS

STATION/POSITION TIME  SKY/WX   TEMP    WIND        PRES    VSBY
                                AIR SEA DIR/SP/G
                 (UTC)          (F)     (DEG/KT/KT) (MB)    (MI)
BUOY 30 S HIGH I 0850            77 76  130/ 19/ 23 1005.5F
WVE H/P(F/S)=  5/ 7

SEA RIM ST PARK  0800            76     130/ 16/ 22 1007.7F
PORT ARTHUR      0848            76 76  140/ 13/ 21 1007.3F
SABINE PASS N    0842            77 78  130/ 19/ 25 1008.6F
TEXAS POINT      NOT AVBL
CALCASIEU PASS   0848            77 77  150/ 19/ 24   N/A
LK CHARLES BEACH 0848            78 74              1008.7F
MARSH ISLAND     0800            78                   N/A
FRESH WATER LOCK 0848            78 78  120/ 14/ 18 1009.5F
AMERADA PASS     0848            78 71  120/  9/ 15 1010.9F
$$




USA.gov is the U.S. government's official web portal to all federal, state and local government web resources and services.